Regional Weather Roundup
Issued by NWS Sioux Falls, SD

Home | Current Version | Previous Version | Text Only | Print | Product List | Glossary Off
Versions: 1 2 3 4 5 6 7 8 9 10 11 12 13 14 15 16 17 18 19 20 21 22 23 24 25 26 27 28 29 30 31 32 33 34 35 36 37 38 39 40 41 42 43 44 45 46 47 48 49 50

344
ASUS43 KFSD 261202
RWRFSD

WEATHER ROUNDUP FOR SE SOUTH DAKOTA/SW MINNESOTA/NW IOWA
NATIONAL WEATHER SERVICE SIOUX FALLS SD
700 AM CDT FRI MAY 26 2017

NOTE: "FAIR" INDICATES FEW OR NO CLOUDS BELOW 12,000 FEET WITH NO
SIGNIFICANT WEATHER AND OR OBSTRUCTIONS TO VISIBILITY.


SDZ038>040-050-052>070-261300-
SOUTHEAST SOUTH DAKOTA

CITY           SKY/WX    TMP DP  RH WIND       PRES   REMARKS
BROOKINGS      PTSUNNY   51  47  86 NW8       29.74R
CHAMBERLAIN    PTCLDY    51  45  80 W9        29.83R
6HR MIN TEMP:  50; 6HR MAX TEMP:  61;

HURON          PTCLDY    51  45  79 NW14      29.77R
6HR MIN TEMP:  49; 6HR MAX TEMP:  53;

MADISON        FAIR      50  50 100 NW15      29.75R
MITCHELL       MOCLDY    53  46  77 NW10      29.78R
6HR MIN TEMP:  53; 6HR MAX TEMP:  59;

SIOUX FALLS    CLOUDY    55  50  83 NW6       29.74R
6HR MIN TEMP:  50; 6HR MAX TEMP:  55;

WINNER         FAIR      50  42  74 NW10      29.84R
YANKTON        CLOUDY    55  47  74 NW15      29.76R
$$

MNZ071-072-080-081-089-090-097-098-261300-
SOUTHWEST MINNESOTA

CITY           SKY/WX    TMP DP  RH WIND       PRES   REMARKS
FAIRMONT       CLOUDY    58  53  84 S6        29.71R
JACKSON        PTSUNNY   57  52  82 CALM      29.71S
LUVERNE        CLOUDY    52  46  82 CALM      29.72R
MARSHALL       CLOUDY    55  52  89 W8        29.71R
6HR MIN TEMP:  53; 6HR MAX TEMP:  56;

MONTEVIDEO     CLOUDY    57  54  88 W8        29.69R
PIPESTONE      MOSUNNY   55  48  76 W6        29.72R
REDWOOD FALLS  CLOUDY    56  51  84 SW6       29.69R
TRACY          MOSUNNY   58  53  85 SW8       29.72R
WINDOM         CLOUDY    57  52  82 SW5       29.71R
WORTHINGTON    CLOUDY    55  52  89 W7        29.72R
$$

IAZ001>003-012>014-020>022-031-032-NEZ013-014-SDZ071-261300-
NORTHWEST IOWA

CITY           SKY/WX    TMP DP  RH WIND       PRES   REMARKS
CHEROKEE       CLOUDY    58  57  96 CALM      29.71R
DENISON        PTSUNNY   59  55  88 CALM      29.72R
ESTHERVILLE    CLOUDY    57  55  93 S3        29.70R
LE MARS        CLOUDY    55  54  94 CALM      29.72R
ORANGE CITY    PTSUNNY   57  55  94 CALM      29.72R
SHELDON        PTSUNNY   55  52  88 CALM      29.70R
SIOUX CITY     CLOUDY    59  55  87 NW12      29.72R
6HR MIN TEMP:  57; 6HR MAX TEMP:  60;

SPENCER        CLOUDY    58  55  90 CALM      29.71R
6HR MIN TEMP:  56; 6HR MAX TEMP:  61;

STORM LAKE     CLOUDY    59  54  82 CALM      29.71R
$$

ABBREVIATIONS USED IN REMARKS
   TC - TEMPERATURE IN CELSIUS
  WCI - WIND CHILL INDEX
   HX - HEAT INDEX
  VSB - VISIBILITY





USA.gov is the U.S. government's official web portal to all federal, state and local government web resources and services.